Miscellaneous Local Product
Issued by NWS North Platte, NE

Home | Current Version | Previous Version | Text Only | Print | Product List | Glossary On
Versions: 1 2 3 4 5 6 7 8 9 10 11 12 13 14 15 16 17 18 19 20 21 22 23 24 25 26 27 28 29 30 31 32 33 34 35 36 37 38 39 40 41 42 43 44 45 46 47 48 49 50
751
AXUS43 KLBF 261210
MISLBF


WESTERN AND NORTH CENTRAL NEBRASKA HOURLY WEATHER ROUNDUP
NATIONAL WEATHER SERVICE NORTH PLATTE NE
700 AM CDT MON JUN 26 2017

NOTE: "FAIR" INDICATES FEW OR NO CLOUDS BELOW 12,000 FEET WITH NO
SIGNIFICANT WEATHER AND/OR OBSTRUCTIONS TO VISIBILITY.

NOTE: STATIONS NOT REPORTING VARIABLES SUCH AS SKY/WEATHER OR
PRESSURE ARE PROVIDED BY RAWS AND APRS NETWORKS AND ARE NOT UNDER
NATIONAL WEATHER SERVICE QUALITY CONTROL.

...OBSERVATIONS IN AND NEAR THE EASTERN PANHANDLE OF NEBRASKA...

CITY           SKY/WX    TMP DP  RH WIND       PRES   REMARKS
PINE RIDGE     PTCLDY    43  39  86 CALM      30.25S
GORDON         FAIR      45  40  82 CALM      30.25R HAZE
CHADRON        PTCLDY    41  38  89 W3        30.26R
ALLIANCE       CLEAR     50  48  93 N6        30.23S
SIDNEY         MOCLDY    53  52  96 W7        30.25S
CRESCENT LAKE    N/A     55  55 100 CALM        N/A
$$

...OBSERVATIONS IN NORTHERN NEBRASKA AND FAR SOUTHERN SOUTH DAKOTA...

CITY           SKY/WX    TMP DP  RH WIND       PRES   REMARKS
WINNER         FAIR      50  45  83 NW3       30.25R
VALENTINE      CLEAR     54  42  64 NE7       30.23R
THEDFORD       PTCLDY    55  53  95 W3        30.22S
AINSWORTH      CLEAR     49  46  89 CALM      30.22S
O`NEILL        PTCLDY    53  50  89 N6        30.19S
ORD            PTCLDY    57  53  86 N5        30.19R
BROKEN BOW     MOCLDY    59  56  89 W13       30.20S
VALENTINE NWR    N/A     51  44  77 NE6         N/A
HALSEY           N/A     54  53  95 CALM        N/A
BUTTE            N/A     53  47  80 E6          N/A
CHAMBERS         N/A     56  51  82 CALM        N/A
EWING            N/A     57  52  84 CALM        N/A
$$

...OBSERVATIONS IN SOUTHWEST NEBRASKA AND FAR NORTHEAST COLORADO...

CITY           SKY/WX    TMP DP  RH WIND       PRES   REMARKS
WRAY           FAIR     N/A N/A N/A W8        30.24S
IMPERIAL       FOG       50  49  96 S3        30.23S VSB 1/4
OGALLALA       MOCLDY    53  52  96 CALM      30.23S FOG
NORTH PLATTE   CLOUDY    59  57  93 NW5       30.23R
MCCOOK         CLOUDY    60  58  92 SW6       30.23S
LEXINGTON      CLOUDY    62  57  86 W7        30.22R
STAPLETON        N/A     54  52  94 CALM        N/A
GOTHENBURG       N/A     60  55  84 SW5         N/A
CALLAWAY         N/A     58  57  96 W9          N/A
$$

...OBSERVATIONS IN CENTRAL LINCOLN COUNTY AREA...

CITY           SKY/WX    TMP DP  RH WIND       PRES   REMARKS
N.P. AIRPORT   CLOUDY    59  57  93 NW5       30.23R
N.P. DOWNTOWN    N/A     58  56  92 CALM        N/A
N.P. SOUTHEAST   N/A     58  56  92 CALM        N/A
N.P. HILLCREST   N/A     56  55  96 SW3         N/A
$$

...SOME OBSERVATIONS FROM AROUND THE REGION...

CITY           SKY/WX    TMP DP  RH WIND       PRES   REMARKS
DENVER         PTCLDY    57  52  83 SW9       30.28S
LIMON          CLOUDY    58  58 100 S9        30.31F
ASPEN          CLOUDY    46  32  58 SW6       30.42R
LARAMIE        CLOUDY    40  38  93 CALM      30.38R
CASPER         CLEAR     43  36  76 NW3       30.28S
CHEYENNE       CLEAR     51  46  83 NW5       30.33R
SCOTTSBLUFF    CLEAR     54  46  74 NE10      30.24R
GRAND ISLAND   PTCLDY    59  56  89 W13       30.20F
OMAHA          CLOUDY    58  51  78 E8        30.18F THUNDER
SIOUX FALLS    MOSUNNY   53  52  96 CALM      30.22R
PIERRE         CLEAR     48  44  86 E8        30.23R
RAPID CITY     CLEAR     47  38  71 W3        30.26R
BISMARCK       CLEAR     41  40  96 CALM      30.28R
KANSAS CITY    MOSUNNY   59  57  93 S5        30.19F
HILL CITY      CLOUDY    59  57  93 W5        30.23S
WICHITA        CLOUDY    63  55  75 E6        30.21S
DODGE CITY     CLOUDY    57  56  96 CALM      30.23S FOG
OKLAHOMA CITY  MOCLDY    65  58  78 SE6       30.19R
DALLAS         MOCLDY    73  65  75 E5        30.13R
AMARILLO       CLOUDY    59  56  89 NW10      30.26S
$$




USA.gov is the U.S. government's official web portal to all federal, state and local government web resources and services.